When you browse on this site, cookies collect data to enhance your experience and personalize the content and advertising you see.
Visit our Privacy Policy to learn more. By continuing to use the site, you agree to this use of cookies and data.
  • In Czech Republic
  • List of Countries
  • For 7 days
  • Water Temperature
  • Weather Map
  • Weather Widgets
  • user-avatar
    Login

    Hourly Weather Lubango

    Today, 29 February, Saturday

    Time Temperature Precipitation Wind Pressure Humidity
    00:00 +15°C° 0 mm 1 mps 607 mmHg 74%
    01:00 +14°C° 0 mm 1 mps 607 mmHg 79%
    02:00 +14°C° 0 mm 1 mps 606 mmHg 75%
    03:00 +14°C° 0 mm 1 mps 606 mmHg 71%
    04:00 +14°C° 0 mm 1 mps 606 mmHg 68%
    05:00 +14°C° 0 mm 1 mps 606 mmHg 63%
    06:00 +14°C° 0 mm 1 mps 607 mmHg 59%
    07:00 +14°C° 0 mm 1 mps 607 mmHg 55%
    08:00 +17°C° 0 mm 2 mps 608 mmHg 49%
    09:00 +19°C° 0 mm 2 mps 610 mmHg 43%
    10:00 +23°C° 0 mm 2 mps 611 mmHg 38%
    11:00 +22°C° 0 mm 3 mps 611 mmHg 36%
    12:00 +24°C° 0 mm 3 mps 610 mmHg 35%
    13:00 +25°C° 0 mm 4 mps 610 mmHg 34%
    14:00 +23°C° 0 mm 4 mps 610 mmHg 35%
    15:00 +23°C° 0 mm 4 mps 609 mmHg 37%
    16:00 +24°C° 0 mm 3 mps 608 mmHg 39%
    17:00 +20°C° 0 mm 3 mps 608 mmHg 46%
    18:00 +18°C° 0 mm 2 mps 608 mmHg 53%
    19:00 +16°C° 0 mm 2 mps 608 mmHg 60%
    20:00 +16°C° 0 mm 2 mps 608 mmHg 59%
    21:00 +15°C° 0 mm 1 mps 608 mmHg 58%
    22:00 +15°C° 0 mm 1 mps 609 mmHg 58%
    23:00 +14°C° 0 mm 1 mps 609 mmHg 55%

    Tomorrow, 1 March, Sunday

    Time Temperature Precipitation Wind Pressure Humidity
    00:00 +14°C° 0 mm 1 mps 608 mmHg 52%
    01:00 +14°C° 0 mm 1 mps 608 mmHg 50%
    02:00 +14°C° 0 mm 1 mps 608 mmHg 50%
    03:00 +13°C° 0 mm 1 mps 608 mmHg 49%
    04:00 +13°C° 0 mm 1 mps 607 mmHg 49%
    05:00 +13°C° 0 mm 1 mps 608 mmHg 51%
    06:00 +14°C° 0 mm 1 mps 608 mmHg 52%
    07:00 +14°C° 0 mm 1 mps 609 mmHg 54%
    08:00 +16°C° 0 mm 2 mps 610 mmHg 50%
    09:00 +19°C° 0 mm 2 mps 611 mmHg 45%
    10:00 +21°C° 0 mm 2 mps 612 mmHg 40%
    11:00 +22°C° 0 mm 3 mps 612 mmHg 39%
    12:00 +24°C° 0 mm 3 mps 612 mmHg 38%
    13:00 +25°C° 0 mm 3 mps 612 mmHg 37%
    14:00 +23°C° 0 mm 4 mps 611 mmHg 39%
    15:00 +23°C° 0 mm 4 mps 610 mmHg 41%
    16:00 +23°C° 0 mm 4 mps 610 mmHg 42%
    17:00 +20°C° 0 mm 3 mps 609 mmHg 52%
    18:00 +18°C° 0 mm 3 mps 608 mmHg 61%
    19:00 +16°C° 0 mm 2 mps 608 mmHg 71%
    20:00 +15°C° 0 mm 2 mps 608 mmHg 70%
    21:00 +15°C° 0 mm 2 mps 608 mmHg 68%
    22:00 +14°C° 0 mm 2 mps 609 mmHg 67%
    23:00 +14°C° 0 mm 2 mps 609 mmHg 63%

    Day after tomorrow, 2 March, Monday

    Time Temperature Precipitation Wind Pressure Humidity
    00:00 +14°C° 0 mm 2 mps 608 mmHg 59%
    01:00 +14°C° 0 mm 2 mps 608 mmHg 55%
    02:00 +14°C° 0 mm 2 mps 608 mmHg 52%
    03:00 +14°C° 0 mm 2 mps 608 mmHg 49%
    04:00 +13°C° 0 mm 2 mps 607 mmHg 45%
    05:00 +14°C° 0 mm 2 mps 608 mmHg 46%
    06:00 +14°C° 0 mm 2 mps 608 mmHg 48%
    07:00 +14°C° 0 mm 2 mps 608 mmHg 49%
    08:00 +17°C° 0 mm 3 mps 610 mmHg 44%
    09:00 +20°C° 0 mm 3 mps 611 mmHg 38%
    10:00 +22°C° 0 mm 4 mps 612 mmHg 32%
    11:00 +24°C° 0 mm 3 mps 611 mmHg 31%
    12:00 +25°C° 0 mm 3 mps 611 mmHg 30%
    13:00 +26°C° 0 mm 3 mps 611 mmHg 28%
    14:00 +26°C° 0 mm 3 mps 610 mmHg 30%
    15:00 +25°C° 0 mm 3 mps 610 mmHg 31%
    16:00 +25°C° 0 mm 3 mps 609 mmHg 33%
    17:00 +22°C° 0 mm 3 mps 609 mmHg 38%
    18:00 +20°C° 0 mm 3 mps 608 mmHg 43%
    19:00 +17°C° 0 mm 2 mps 607 mmHg 48%
    20:00 +17°C° 0 mm 2 mps 607 mmHg 48%
    21:00 +16°C° 0 mm 2 mps 608 mmHg 49%
    22:00 +16°C° 0 mm 2 mps 608 mmHg 50%
    23:00 +15°C° 0 mm 2 mps 608 mmHg 47%

    3 March, Tuesday

    Time Temperature Precipitation Wind Pressure Humidity
    00:00 +15°C° 0 mm 2 mps 608 mmHg 44%
    01:00 +15°C° 0 mm 2 mps 607 mmHg 41%
    02:00 +15°C° 0 mm 2 mps 607 mmHg 39%
    03:00 +15°C° 0 mm 2 mps 607 mmHg 37%
    04:00 +15°C° 0 mm 2 mps 607 mmHg 35%
    05:00 +15°C° 0 mm 1 mps 608 mmHg 38%
    06:00 +15°C° 0 mm 1 mps 608 mmHg 41%
    07:00 +16°C° 0 mm 1 mps 608 mmHg 44%
    08:00 +19°C° 0 mm 1 mps 610 mmHg 39%
    09:00 +22°C° 0 mm 1 mps 611 mmHg 34%
    10:00 +24°C° 0 mm 1 mps 612 mmHg 29%
    11:00 +25°C° 0 mm 2 mps 612 mmHg 29%
    12:00 +26°C° 0 mm 2 mps 611 mmHg 28%
    13:00 +27°C° 0 mm 2 mps 611 mmHg 28%
    14:00 +26°C° 0 mm 3 mps 610 mmHg 29%
    15:00 +26°C° 0 mm 3 mps 610 mmHg 30%
    16:00 +25°C° 0 mm 3 mps 609 mmHg 31%
    17:00 +22°C° 0 mm 3 mps 608 mmHg 35%
    18:00 +20°C° 0 mm 2 mps 608 mmHg 39%
    19:00 +17°C° 0 mm 2 mps 607 mmHg 43%
    20:00 +17°C° 0 mm 2 mps 608 mmHg 42%
    21:00 +17°C° 0 mm 2 mps 608 mmHg 42%
    22:00 +16°C° 0 mm 1 mps 609 mmHg 41%
    23:00 +16°C° 0 mm 1 mps 608 mmHg 42%

    4 March, Wednesday

    Time Temperature Precipitation Wind Pressure Humidity
    00:00 +16°C° 0 mm 1 mps 608 mmHg 42%
    01:00 +15°C° 0 mm 1 mps 608 mmHg 42%
    02:00 +16°C° 0 mm 1 mps 608 mmHg 40%
    03:00 +16°C° 0 mm 1 mps 608 mmHg 37%
    04:00 +16°C° 0 mm 1 mps 608 mmHg 35%
    05:00 +16°C° 0 mm 1 mps 608 mmHg 37%
    06:00 +16°C° 0 mm 1 mps 609 mmHg 38%
    07:00 +16°C° 0 mm 1 mps 609 mmHg 40%
    08:00 +20°C° 0 mm 1 mps 610 mmHg 37%
    09:00 +22°C° 0 mm 1 mps 611 mmHg 33%
    10:00 +24°C° 0 mm 2 mps 611 mmHg 30%
    11:00 +25°C° 0 mm 2 mps 611 mmHg 32%
    12:00 +26°C° 0 mm 2 mps 611 mmHg 33%
    13:00 +27°C° 0 mm 2 mps 611 mmHg 35%
    14:00 +26°C° 0 mm 2 mps 610 mmHg 36%
    15:00 +25°C° 0 mm 3 mps 609 mmHg 37%
    16:00 +24°C° 0 mm 3 mps 608 mmHg 39%
    17:00 +21°C° 0 mm 2 mps 608 mmHg 43%
    18:00 +19°C° 0 mm 2 mps 608 mmHg 47%
    19:00 +18°C° 0 mm 2 mps 608 mmHg 51%
    20:00 +18°C° 0.1 mm 1 mps 608 mmHg 54%
    21:00 +16°C° 0.1 mm 1 mps 608 mmHg 57%
    22:00 +16°C° 0.1 mm 1 mps 608 mmHg 60%
    23:00 +16°C° 0.4 mm 1 mps 608 mmHg 64%

    5 March, Thursday

    Time Temperature Precipitation Wind Pressure Humidity
    00:00 +16°C° 0.4 mm 1 mps 608 mmHg 69%
    01:00 +16°C° 0.4 mm 1 mps 608 mmHg 74%
    02:00 +16°C° 0.6 mm 1 mps 608 mmHg 77%
    03:00 +16°C° 0.6 mm 1 mps 607 mmHg 80%
    04:00 +16°C° 0.6 mm 1 mps 607 mmHg 83%
    05:00 +16°C° 0.1 mm 1 mps 607 mmHg 82%
    06:00 +16°C° 0.1 mm 1 mps 608 mmHg 82%
    07:00 +16°C° 0.1 mm 1 mps 608 mmHg 81%
    08:00 +19°C° 0.2 mm 1 mps 609 mmHg 76%
    09:00 +21°C° 0.2 mm 1 mps 610 mmHg 70%
    10:00 +23°C° 0.2 mm 2 mps 611 mmHg 64%
    11:00 +24°C° 1.3 mm 2 mps 610 mmHg 63%
    12:00 +24°C° 1.3 mm 1 mps 610 mmHg 63%
    13:00 +25°C° 1.3 mm 1 mps 609 mmHg 62%
    14:00 +24°C° 2.4 mm 1 mps 609 mmHg 66%
    15:00 +23°C° 2.4 mm 2 mps 608 mmHg 70%
    16:00 +21°C° 2.4 mm 2 mps 607 mmHg 73%
    17:00 +20°C° 1.6 mm 2 mps 607 mmHg 78%
    18:00 +20°C° 1.6 mm 1 mps 607 mmHg 82%
    19:00 +18°C° 1.6 mm 1 mps 607 mmHg 87%
    20:00 +18°C° 0.9 mm 1 mps 607 mmHg 87%
    21:00 +18°C° 0.9 mm 1 mps 608 mmHg 88%
    22:00 +16°C° 0.9 mm 1 mps 608 mmHg 88%
    23:00 +16°C° 0.5 mm 1 mps 608 mmHg 88%
    Show more